Location: Rancho Del Sol Observatory
(38.7214°N, 120.6350°W)
Time: 06:20:40
(UTC-08:00)

deb Explorer IX - All Passes

Search period start: 17 January 2020 00:00
Search period end: 27 January 2020 00:00
Orbit: 548 x 1101 km, 38.8° (Epoch: 16 January)

Date Brightness Start Highest point End Pass type
(mag) Time Alt. Az. Time Alt. Az. Time Alt. Az.
17 Jan - 00:58:22 10° SW 01:05:26 59° SSE 01:11:54 10° E night (unlit)
17 Jan - 02:45:48 10° W 02:52:49 90° S 02:58:56 10° E visible
17 Jan - 04:33:40 10° W 04:40:11 78° SSW 04:45:43 10° ESE visible
17 Jan - 06:21:41 10° W 06:26:52 32° SSW 06:31:23 10° SSE visible
17 Jan - 22:50:32 10° SSW 22:56:10 24° SE 23:01:40 10° E night (unlit)
18 Jan - 00:35:54 10° SW 00:43:03 60° SSE 00:49:39 10° E night (unlit)
18 Jan - 02:23:20 10° W 02:30:27 90° SSE 02:36:44 10° E visible
18 Jan - 04:11:12 10° W 04:17:52 77° SSW 04:23:34 10° ESE visible
18 Jan - 05:59:14 10° W 06:04:35 33° SSW 06:09:15 10° SSE visible
18 Jan - 22:28:04 10° SSW 22:33:45 25° SE 22:39:22 10° E night (unlit)
19 Jan - 00:13:27 10° WSW 00:20:38 61° SSE 00:27:23 10° E night (unlit)
19 Jan - 02:00:52 10° W 02:08:04 90° NW 02:14:31 10° E night (unlit)
19 Jan - 03:48:43 10° W 03:55:32 77° SSW 04:01:24 10° ESE visible
19 Jan - 05:36:46 10° W 05:42:18 33° SSW 05:47:06 10° SSE visible
19 Jan - 22:05:37 10° SSW 22:11:20 25° SE 22:17:01 10° E night (unlit)
19 Jan - 23:51:00 10° WSW 23:58:12 62° SSE 00:05:04 10° E night (unlit)
20 Jan - 01:38:24 10° W 01:45:41 90° N 01:52:16 10° E night (unlit)
20 Jan - 03:26:14 10° W 03:33:10 77° SSW 03:39:12 10° ESE visible
20 Jan - 05:14:17 10° W 05:19:58 33° SSW 05:24:56 10° SSE visible
20 Jan - 21:43:11 10° SSW 21:48:53 26° SE 21:54:39 10° E night (unlit)
20 Jan - 23:28:34 10° WSW 23:35:45 62° SSE 23:42:43 10° E night (unlit)
21 Jan - 01:15:56 10° W 01:23:15 90° NNW 01:30:00 10° E night (unlit)
21 Jan - 03:03:45 10° W 03:10:48 77° SSW 03:16:59 10° ESE visible
21 Jan - 04:51:48 10° W 04:57:38 34° SSW 05:02:45 10° SSE visible
21 Jan - 21:20:46 10° SSW 21:26:26 26° SE 21:32:15 10° E night (unlit)
21 Jan - 23:06:08 10° WSW 23:13:18 63° SSE 23:20:22 10° E night (unlit)
22 Jan - 00:53:28 10° W 01:00:49 89° NNW 01:07:42 10° E night (unlit)
22 Jan - 02:41:15 10° W 02:48:24 77° SSW 02:54:45 10° ESE visible
22 Jan - 04:29:18 10° W 04:35:16 34° SSW 04:40:32 10° SSE visible
22 Jan - 20:58:22 10° SSW 21:03:59 26° SE 21:09:49 10° E visible
22 Jan - 22:43:43 10° WSW 22:50:50 64° SSE 22:57:58 10° E night (unlit)
23 Jan - 00:31:01 10° W 00:38:23 89° N 00:45:22 10° E night (unlit)
23 Jan - 02:18:45 10° W 02:25:59 76° SSW 02:32:29 10° ESE night (unlit)
23 Jan - 04:06:47 10° W 04:12:53 34° SSW 04:18:17 10° SSE visible
23 Jan - 20:35:59 10° SSW 20:41:33 26° SE 20:47:22 10° E visible
23 Jan - 22:21:19 10° WSW 22:28:22 64° SSE 22:35:34 10° E night (unlit)
24 Jan - 00:08:33 10° W 00:15:55 89° N 00:23:01 10° E night (unlit)
24 Jan - 01:56:15 10° W 02:03:32 76° SSW 02:10:11 10° ESE night (unlit)
24 Jan - 03:44:16 10° W 03:50:29 35° SSW 03:56:03 10° SSE visible
24 Jan - 20:13:37 10° SSW 20:19:05 26° SE 20:24:53 10° E visible
24 Jan - 21:58:55 10° WSW 22:05:53 65° SSE 22:13:07 10° E night (unlit)
24 Jan - 23:46:07 10° W 23:53:27 89° N 00:00:38 10° E night (unlit)
25 Jan - 01:33:46 10° W 01:41:05 76° SSW 01:47:51 10° ESE night (unlit)
25 Jan - 03:21:46 10° W 03:28:03 35° SSW 03:33:45 10° SSE visible
25 Jan - 19:51:15 10° SSW 19:56:38 26° SE 20:02:24 10° E visible
25 Jan - 21:36:32 10° WSW 21:43:24 65° SSE 21:50:39 10° E visible
25 Jan - 23:23:41 10° W 23:30:58 89° N 23:38:13 10° E night (unlit)
26 Jan - 01:11:17 10° W 01:18:37 75° SSW 01:25:31 10° ESE night (unlit)
26 Jan - 02:59:14 10° W 03:05:36 35° SSW 03:11:26 10° SSE night (unlit)
26 Jan - 19:28:55 10° SSW 19:34:11 26° SE 19:39:53 10° E visible
26 Jan - 21:14:10 10° WSW 21:20:56 65° SSE 21:28:10 10° E visible
26 Jan - 23:01:16 10° W 23:08:29 89° N 23:15:48 10° E night (unlit)
